| time (UTC) | temp F | wind direction | speed MPH | gust MPH | rain 1hr in | rain 24hr in | rain mn in | humidity % | barometer mb |
| 20260504081529 | 61 | 48 | 0.0 | 2.0 | 0.00 | 0.00 | 0.00 | 69 | 1007.8 |
| 20260504050010 | 75 | 99 | 0.0 | 3.0 | 0.00 | 0.00 | 0.00 | 41 | 1007.0 |
| 20260504044510 | 75 | 36 | 1.0 | 3.0 | 0.00 | 0.00 | 0.00 | 39 | 1007.0 |
| 20260504043010 | 77 | 350 | 0.0 | 3.0 | 0.00 | 0.00 | 0.00 | 36 | 1006.9 |
| 20260504041508 | 78 | 64 | 1.0 | 7.0 | 0.00 | 0.00 | 0.00 | 36 | 1006.7 |
| 20260504040010 | 78 | 270 | 0.0 | 4.0 | 0.00 | 0.00 | 0.00 | 37 | 1006.7 |
| 20260504034508 | 79 | 89 | 2.0 | 7.0 | 0.00 | 0.00 | 0.00 | 36 | 1006.5 |
| 20260504033008 | 80 | 37 | 0.0 | 4.0 | 0.00 | 0.00 | 0.00 | 37 | 1006.5 |
| 20260504031507 | 81 | 54 | 1.0 | 7.0 | 0.00 | 0.00 | 0.00 | 36 | 1006.3 |
| 20260504030007 | 82 | 320 | 1.0 | 4.0 | 0.00 | 0.00 | 0.00 | 37 | 1006.3 |
| 20260504024506 | 83 | 49 | 1.0 | 5.0 | 0.00 | 0.00 | 0.00 | 38 | 1006.2 |
| 20260504023006 | 84 | 10 | 2.0 | 6.0 | 0.00 | 0.00 | 0.00 | 37 | 1006.2 |
| 20260504021505 | 85 | 71 | 1.0 | 9.0 | 0.00 | 0.00 | 0.00 | 35 | 1006.1 |
| 20260504020004 | 86 | 34 | 2.0 | 7.0 | 0.00 | 0.00 | 0.00 | 33 | 1006.1 |
| 20260504014510 | 87 | 40 | 3.0 | 6.0 | 0.00 | 0.00 | 0.00 | 32 | 1006.1 |
| 20260504013003 | 88 | 31 | 2.0 | 4.0 | 0.00 | 0.00 | 0.00 | 29 | 1006.2 |
| 20260504011501 | 88 | 24 | 3.0 | 7.0 | 0.00 | 0.00 | 0.00 | 28 | 1006.3 |
| 20260504010120 | 89 | 336 | 1.0 | 4.0 | 0.00 | 0.00 | 0.00 | 28 | 1006.5 |
| 20260504004559 | 90 | 314 | 1.0 | 5.0 | 0.00 | 0.00 | 0.00 | 28 | 1006.6 |
| 20260504003057 | 90 | 323 | 3.0 | 6.0 | 0.00 | 0.00 | 0.00 | 28 | 1006.7 |
| 20260504001610 | 90 | 75 | 2.0 | 7.0 | 0.00 | 0.00 | 0.00 | 26 | 1006.8 |
| 20260504000058 | 90 | 340 | 2.0 | 6.0 | 0.00 | 0.00 | 0.00 | 25 | 1006.8 |
| 20260503234553 | 90 | 101 | 2.0 | 7.0 | 0.00 | 0.00 | 0.00 | 27 | 1007.0 |
| 20260503233050 | 91 | 155 | 2.0 | 7.0 | 0.00 | 0.00 | 0.00 | 23 | 1007.2 |
| 20260503231552 | 91 | 70 | 3.0 | 7.0 | 0.00 | 0.00 | 0.00 | 24 | 1007.3 |
| 20260503230046 | 90 | 343 | 3.0 | 6.0 | 0.00 | 0.00 | 0.00 | 23 | 1007.5 |
| 20260503224548 | 90 | 54 | 3.0 | 9.0 | 0.00 | 0.00 | 0.00 | 22 | 1007.8 |
| 20260503223043 | 91 | 82 | 1.0 | 4.0 | 0.00 | 0.00 | 0.00 | 30 | 1008.0 |
| 20260503221537 | 89 | 163 | 3.0 | 8.0 | 0.00 | 0.00 | 0.00 | 26 | 1008.2 |
| 20260503220039 | 89 | 17 | 3.0 | 11.0 | 0.00 | 0.00 | 0.00 | 26 | 1008.5 |
| 20260503214541 | 90 | 34 | 3.0 | 7.0 | 0.00 | 0.00 | 0.00 | 27 | 1008.7 |
| 20260503213049 | 89 | 344 | 2.0 | 7.0 | 0.00 | 0.00 | 0.00 | 25 | 1008.9 |
| 20260503211527 | 89 | 23 | 1.0 | 5.0 | 0.00 | 0.00 | 0.00 | 28 | 1009.0 |
| 20260503210023 | 88 | 34 | 3.0 | 7.0 | 0.00 | 0.00 | 0.00 | 27 | 1009.2 |
| 20260503204521 | 88 | 68 | 3.0 | 7.0 | 0.00 | 0.00 | 0.00 | 28 | 1009.4 |
| 20260503203023 | 87 | 155 | 2.0 | 9.0 | 0.00 | 0.00 | 0.00 | 30 | 1009.6 |
| 20260503201514 | 87 | 86 | 4.0 | 9.0 | 0.00 | 0.00 | 0.00 | 31 | 1009.7 |
| 20260503200011 | 86 | 170 | 2.0 | 9.0 | 0.00 | 0.00 | 0.00 | 35 | 1009.9 |
| 20260503194509 | 85 | 33 | 2.0 | 10.0 | 0.00 | 0.00 | 0.00 | 32 | 1010.2 |
| 20260503193003 | 83 | 187 | 4.0 | 8.0 | 0.00 | 0.00 | 0.00 | 43 | 1010.2 |
| 20260503191606 | 82 | 146 | 2.0 | 4.0 | 0.00 | 0.00 | 0.00 | 53 | 1010.4 |
| 20260503190055 | 81 | 180 | 3.0 | 5.0 | 0.00 | 0.03 | 0.00 | 55 | 1010.6 |
| 20260503184611 | 80 | 184 | 1.0 | 4.0 | 0.00 | 0.03 | 0.00 | 55 | 1010.7 |
| 20260503183048 | 79 | 224 | 2.0 | 5.0 | 0.00 | 0.03 | 0.00 | 59 | 1010.9 |
| 20260503181544 | 77 | 182 | 1.0 | 4.0 | 0.00 | 0.03 | 0.00 | 56 | 1011.1 |
| 20260503180040 | 76 | 141 | 1.0 | 4.0 | 0.00 | 0.03 | 0.00 | 60 | 1011.3 |
| 20260503174545 | 74 | 148 | 2.0 | 5.0 | 0.00 | 0.03 | 0.00 | 64 | 1011.4 |
| 20260503173035 | 74 | 184 | 2.0 | 4.0 | 0.00 | 0.03 | 0.00 | 65 | 1011.5 |
| 20260503171534 | 73 | 165 | 1.0 | 3.0 | 0.00 | 0.03 | 0.00 | 63 | 1011.5 |